| time (UTC) | temp C | wind direction | speed KPH | gust KPH | rain 1hr cm | rain 24hr cm | rain mn cm | humidity % | barometer mb |
| 20260504060103 | 17 | 151 | 3.2 | 9.7 | 0.00 | 0.00 | 0.00 | 54 | 1012.2 |
| 20260504050559 | 14 | 183 | 1.6 | 11.3 | 0.00 | 0.00 | 0.00 | 64 | 1012.2 |
| 20260504045559 | 13 | 204 | 3.2 | 8.0 | 0.00 | 0.00 | 0.00 | 65 | 1012.0 |
| 20260504045100 | 13 | 183 | 1.6 | 6.4 | 0.00 | 0.00 | 0.00 | 66 | 1012.0 |
| 20260504044600 | 13 | 191 | 1.6 | 8.0 | 0.00 | 0.00 | 0.00 | 67 | 1012.0 |
| 20260504044500 | 13 | 209 | 1.6 | 8.0 | 0.00 | 0.00 | 0.00 | 67 | 1012.0 |
| 20260504044059 | 12 | 207 | 1.6 | 8.0 | 0.00 | 0.00 | 0.00 | 68 | 1012.0 |
| 20260504043601 | 12 | 211 | 1.6 | 4.8 | 0.00 | 0.00 | 0.00 | 70 | 1012.0 |
| 20260504043105 | 12 | 181 | 0.0 | 3.2 | 0.00 | 0.00 | 0.00 | 71 | 1011.9 |
| 20260504042559 | 11 | 184 | 0.0 | 1.6 | 0.00 | 0.00 | 0.00 | 74 | 1011.8 |
| 20260504042100 | 11 | 176 | 0.0 | 0.0 | 0.00 | 0.00 | 0.00 | 77 | 1011.8 |
| 20260504041600 | 11 | 171 | 0.0 | 0.0 | 0.00 | 0.00 | 0.00 | 77 | 1011.9 |
| 20260504041100 | 11 | 137 | 0.0 | 1.6 | 0.00 | 0.00 | 0.00 | 74 | 1011.8 |
| 20260504040600 | 11 | 145 | 0.0 | 4.8 | 0.00 | 0.00 | 0.00 | 69 | 1011.9 |
| 20260504040132 | 11 | 163 | 0.0 | 4.8 | 0.00 | 0.00 | 0.00 | 69 | 1011.8 |
| 20260504035558 | 11 | 190 | 0.0 | 4.8 | 0.00 | 0.00 | 0.00 | 69 | 1011.8 |
| 20260504035102 | 11 | 182 | 0.0 | 4.8 | 0.00 | 0.00 | 0.00 | 68 | 1011.7 |
| 20260504034603 | 12 | 192 | 0.0 | 4.8 | 0.00 | 0.00 | 0.00 | 68 | 1011.7 |
| 20260504034059 | 12 | 192 | 1.6 | 4.8 | 0.00 | 0.00 | 0.00 | 67 | 1011.8 |
| 20260504033603 | 12 | 201 | 1.6 | 6.4 | 0.00 | 0.00 | 0.00 | 66 | 1011.7 |
| 20260504033059 | 12 | 191 | 3.2 | 6.4 | 0.00 | 0.00 | 0.00 | 66 | 1011.8 |
| 20260504032559 | 11 | 212 | 3.2 | 6.4 | 0.00 | 0.00 | 0.00 | 68 | 1011.7 |
| 20260504032102 | 11 | 209 | 3.2 | 4.8 | 0.00 | 0.00 | 0.00 | 67 | 1011.7 |
| 20260504031621 | 12 | 196 | 3.2 | 6.4 | 0.00 | 0.00 | 0.00 | 66 | 1011.7 |
| 20260504031100 | 12 | 207 | 1.6 | 6.4 | 0.00 | 0.00 | 0.00 | 66 | 1011.7 |
| 20260504030558 | 12 | 190 | 3.2 | 6.4 | 0.00 | 0.00 | 0.00 | 65 | 1011.7 |
| 20260504030058 | 12 | 225 | 3.2 | 6.4 | 0.00 | 0.00 | 0.00 | 65 | 1011.8 |
| 20260504030002 | 12 | 227 | 3.2 | 4.8 | 0.00 | 0.00 | 0.00 | 65 | 1011.8 |
| 20260504025600 | 12 | 202 | 1.6 | 6.4 | 0.00 | 0.00 | 0.00 | 66 | 1011.8 |
| 20260504025100 | 12 | 197 | 3.2 | 6.4 | 0.00 | 0.00 | 0.00 | 67 | 1011.7 |
| 20260504025002 | 12 | 196 | 3.2 | 6.4 | 0.00 | 0.00 | 0.00 | 67 | 1011.8 |
| 20260504024604 | 11 | 195 | 3.2 | 6.4 | 0.00 | 0.00 | 0.00 | 68 | 1011.8 |
| 20260504024059 | 11 | 207 | 3.2 | 6.4 | 0.00 | 0.00 | 0.00 | 69 | 1011.8 |
| 20260504023559 | 11 | 195 | 1.6 | 6.4 | 0.00 | 0.00 | 0.00 | 71 | 1011.8 |
| 20260504023101 | 10 | 199 | 0.0 | 3.2 | 0.00 | 0.00 | 0.00 | 73 | 1011.9 |
| 20260504022601 | 11 | 151 | 0.0 | 4.8 | 0.00 | 0.00 | 0.00 | 72 | 1011.8 |
| 20260504022100 | 11 | 165 | 0.0 | 4.8 | 0.00 | 0.00 | 0.00 | 72 | 1011.9 |
| 20260504021600 | 11 | 184 | 0.0 | 3.2 | 0.00 | 0.00 | 0.00 | 71 | 1011.8 |
| 20260504021001 | 11 | 183 | 0.0 | 3.2 | 0.00 | 0.00 | 0.00 | 71 | 1011.9 |
| 20260504020601 | 11 | 148 | 0.0 | 4.8 | 0.00 | 0.00 | 0.00 | 72 | 1011.9 |
| 20260504020112 | 11 | 190 | 1.6 | 4.8 | 0.00 | 0.00 | 0.00 | 74 | 1011.8 |
| 20260504020001 | 10 | 186 | 1.6 | 4.8 | 0.00 | 0.00 | 0.00 | 75 | 1011.8 |
| 20260504015601 | 10 | 137 | 0.0 | 0.0 | 0.00 | 0.00 | 0.00 | 74 | 1011.8 |
| 20260504015101 | 10 | 156 | 0.0 | 0.0 | 0.00 | 0.00 | 0.00 | 73 | 1011.8 |
| 20260504014558 | 10 | 103 | 0.0 | 0.0 | 0.00 | 0.00 | 0.00 | 73 | 1011.8 |
| 20260504014058 | 11 | 142 | 0.0 | 0.0 | 0.00 | 0.00 | 0.00 | 71 | 1011.9 |
| 20260504013558 | 11 | 147 | 0.0 | 1.6 | 0.00 | 0.00 | 0.00 | 68 | 1011.9 |
| 20260504013100 | 12 | 147 | 0.0 | 1.6 | 0.00 | 0.00 | 0.00 | 64 | 1011.9 |
| 20260504012601 | 13 | 207 | 0.0 | 4.8 | 0.00 | 0.00 | 0.00 | 61 | 1011.9 |
| 20260504012059 | 13 | 196 | 0.0 | 4.8 | 0.00 | 0.00 | 0.00 | 61 | 1011.9 |
| 20260504011600 | 13 | 202 | 0.0 | 4.8 | 0.00 | 0.00 | 0.00 | 61 | 1011.9 |
| 20260504011059 | 13 | 212 | 0.0 | 4.8 | 0.00 | 0.00 | 0.00 | 62 | 1011.9 |
| 20260504010558 | 12 | 209 | 1.6 | 4.8 | 0.00 | 0.00 | 0.00 | 63 | 1011.9 |
| 20260504010059 | 12 | 212 | 1.6 | 6.4 | 0.00 | 0.00 | 0.00 | 63 | 1011.9 |
| 20260504005559 | 12 | 207 | 3.2 | 6.4 | 0.00 | 0.00 | 0.00 | 63 | 1011.9 |
| 20260504005059 | 12 | 197 | 3.2 | 6.4 | 0.00 | 0.00 | 0.00 | 65 | 1011.9 |
| 20260504004559 | 11 | 208 | 3.2 | 4.8 | 0.00 | 0.00 | 0.00 | 67 | 1011.9 |
| 20260504004059 | 11 | 198 | 1.6 | 4.8 | 0.00 | 0.00 | 0.00 | 68 | 1011.9 |
| 20260504003558 | 11 | 204 | 0.0 | 4.8 | 0.00 | 0.00 | 0.00 | 69 | 1011.8 |
| 20260504003059 | 11 | 198 | 1.6 | 4.8 | 0.00 | 0.00 | 0.00 | 69 | 1011.8 |
| 20260504002558 | 10 | 202 | 1.6 | 4.8 | 0.00 | 0.00 | 0.00 | 72 | 1011.8 |
| 20260504002058 | 10 | 195 | 0.0 | 3.2 | 0.00 | 0.00 | 0.00 | 73 | 1011.9 |
| 20260504001602 | 10 | 212 | 0.0 | 1.6 | 0.00 | 0.00 | 0.00 | 72 | 1011.9 |
| 20260504001100 | 10 | 130 | 0.0 | 1.6 | 0.00 | 0.00 | 0.00 | 72 | 1011.9 |
| 20260504000600 | 10 | 154 | 0.0 | 1.6 | 0.00 | 0.00 | 0.00 | 73 | 1011.9 |
| 20260503235559 | 10 | 151 | 0.0 | 1.6 | 0.00 | 0.00 | 0.00 | 72 | 1011.9 |
| 20260503235102 | 10 | 167 | 0.0 | 1.6 | 0.00 | 0.00 | 0.00 | 73 | 1011.9 |
| 20260503234627 | 10 | 220 | 0.0 | 1.6 | 0.00 | 0.00 | 0.00 | 73 | 1011.9 |
| 20260503234103 | 10 | 222 | 0.0 | 3.2 | 0.00 | 0.00 | 0.00 | 73 | 1011.9 |
| 20260503233559 | 10 | 186 | 0.0 | 3.2 | 0.00 | 0.00 | 0.00 | 72 | 1012.0 |
| 20260503233058 | 10 | 168 | 0.0 | 3.2 | 0.00 | 0.00 | 0.00 | 72 | 1012.0 |
| 20260503232558 | 10 | 116 | 0.0 | 1.6 | 0.00 | 0.00 | 0.00 | 72 | 1012.0 |
| 20260503232100 | 10 | 119 | 0.0 | 3.2 | 0.00 | 0.00 | 0.00 | 71 | 1012.1 |
| 20260503231559 | 10 | 111 | 0.0 | 3.2 | 0.00 | 0.00 | 0.00 | 72 | 1012.0 |
| 20260503231058 | 10 | 117 | 0.0 | 1.6 | 0.00 | 0.00 | 0.00 | 72 | 1012.1 |
| 20260503230602 | 10 | 117 | 0.0 | 3.2 | 0.00 | 0.00 | 0.00 | 70 | 1012.1 |
| 20260503230059 | 10 | 146 | 0.0 | 3.2 | 0.00 | 0.00 | 0.00 | 70 | 1012.1 |
| 20260503225559 | 11 | 140 | 0.0 | 1.6 | 0.00 | 0.00 | 0.00 | 69 | 1012.1 |
| 20260503225100 | 11 | 134 | 0.0 | 0.0 | 0.00 | 0.00 | 0.00 | 69 | 1012.1 |
| 20260503224600 | 11 | 134 | 0.0 | 1.6 | 0.00 | 0.00 | 0.00 | 69 | 1012.1 |
| 20260503224102 | 11 | 126 | 0.0 | 0.0 | 0.00 | 0.00 | 0.00 | 68 | 1012.2 |
| 20260503223600 | 11 | 200 | 0.0 | 1.6 | 0.00 | 0.00 | 0.00 | 68 | 1012.2 |
| 20260503223059 | 11 | 165 | 0.0 | 1.6 | 0.00 | 0.00 | 0.00 | 68 | 1012.2 |
| 20260503222559 | 11 | 163 | 0.0 | 1.6 | 0.00 | 0.00 | 0.00 | 67 | 1012.3 |
| 20260503222100 | 11 | 140 | 0.0 | 1.6 | 0.00 | 0.00 | 0.00 | 67 | 1012.3 |
| 20260503221606 | 11 | 142 | 0.0 | 1.6 | 0.00 | 0.00 | 0.00 | 68 | 1012.3 |
| 20260503221100 | 11 | 132 | 0.0 | 0.0 | 0.00 | 0.00 | 0.00 | 68 | 1012.3 |
| 20260503220600 | 11 | 140 | 0.0 | 0.0 | 0.00 | 0.00 | 0.00 | 68 | 1012.4 |
| 20260503220059 | 11 | 140 | 0.0 | 0.0 | 0.00 | 0.00 | 0.00 | 67 | 1012.4 |
| 20260503220005 | 11 | 140 | 0.0 | 0.0 | 0.00 | 0.00 | 0.00 | 67 | 1012.4 |
| 20260503215600 | 11 | 140 | 0.0 | 0.0 | 0.00 | 0.00 | 0.00 | 67 | 1012.5 |
| 20260503215100 | 12 | 140 | 0.0 | 1.6 | 0.00 | 0.00 | 0.00 | 67 | 1012.5 |
| 20260503214505 | 12 | 84 | 0.0 | 1.6 | 0.00 | 0.00 | 0.00 | 66 | 1012.6 |
| 20260503214101 | 12 | 317 | 0.0 | 0.0 | 0.00 | 0.00 | 0.00 | 65 | 1012.6 |
| 20260503213600 | 12 | 269 | 0.0 | 0.0 | 0.00 | 0.00 | 0.00 | 65 | 1012.6 |
| 20260503213500 | 12 | 269 | 0.0 | 0.0 | 0.00 | 0.00 | 0.00 | 65 | 1012.6 |
| 20260503213100 | 12 | 269 | 0.0 | 1.6 | 0.00 | 0.00 | 0.00 | 65 | 1012.5 |
| 20260503213002 | 12 | 269 | 0.0 | 1.6 | 0.00 | 0.00 | 0.00 | 65 | 1012.5 |
| 20260503212601 | 12 | 205 | 0.0 | 1.6 | 0.00 | 0.00 | 0.00 | 65 | 1012.6 |
| 20260503212002 | 12 | 163 | 0.0 | 1.6 | 0.00 | 0.00 | 0.00 | 65 | 1012.6 |
| 20260503211501 | 12 | 68 | 0.0 | 1.6 | 0.00 | 0.00 | 0.00 | 64 | 1012.6 |
| 20260503211001 | 13 | 71 | 0.0 | 1.6 | 0.00 | 0.00 | 0.00 | 63 | 1012.7 |
| 20260503210501 | 13 | 71 | 0.0 | 0.0 | 0.00 | 0.00 | 0.00 | 63 | 1012.6 |
| 20260503210104 | 13 | 74 | 0.0 | 0.0 | 0.00 | 0.00 | 0.00 | 62 | 1012.7 |
| 20260503210002 | 13 | 86 | 0.0 | 0.0 | 0.00 | 0.00 | 0.00 | 62 | 1012.6 |
| 20260503205600 | 13 | 117 | 0.0 | 0.0 | 0.00 | 0.00 | 0.00 | 61 | 1012.7 |
| 20260503205502 | 13 | 117 | 0.0 | 0.0 | 0.00 | 0.00 | 0.00 | 61 | 1012.6 |
| 20260503205101 | 13 | 132 | 0.0 | 1.6 | 0.00 | 0.00 | 0.00 | 61 | 1012.6 |
| 20260503204601 | 13 | 137 | 0.0 | 1.6 | 0.00 | 0.00 | 0.00 | 60 | 1012.6 |
| 20260503204500 | 13 | 137 | 0.0 | 1.6 | 0.00 | 0.00 | 0.00 | 60 | 1012.7 |
| 20260503204100 | 13 | 144 | 0.0 | 0.0 | 0.00 | 0.00 | 0.00 | 59 | 1012.7 |
| 20260503203600 | 13 | 227 | 0.0 | 0.0 | 0.00 | 0.00 | 0.00 | 59 | 1012.6 |
| 20260503203003 | 13 | 184 | 0.0 | 1.6 | 0.00 | 0.00 | 0.00 | 58 | 1012.7 |
| 20260503202501 | 14 | 197 | 0.0 | 0.0 | 0.00 | 0.00 | 0.00 | 58 | 1012.6 |
| 20260503202101 | 14 | 144 | 0.0 | 0.0 | 0.00 | 0.00 | 0.00 | 57 | 1012.6 |
| 20260503202000 | 14 | 138 | 0.0 | 0.0 | 0.00 | 0.00 | 0.00 | 57 | 1012.7 |
| 20260503201502 | 15 | 182 | 0.0 | 0.0 | 0.00 | 0.00 | 0.00 | 57 | 1012.6 |
| 20260503201104 | 15 | 232 | 0.0 | 1.6 | 0.00 | 0.00 | 0.00 | 56 | 1012.6 |
| 20260503200601 | 15 | 186 | 0.0 | 1.6 | 0.00 | 0.00 | 0.00 | 56 | 1012.7 |
| 20260503200003 | 15 | 188 | 0.0 | 1.6 | 0.00 | 0.00 | 0.00 | 55 | 1012.7 |
| 20260503195605 | 15 | 160 | 0.0 | 1.6 | 0.00 | 0.00 | 0.00 | 55 | 1012.7 |
| 20260503195502 | 15 | 179 | 0.0 | 1.6 | 0.00 | 0.00 | 0.00 | 55 | 1012.7 |
| 20260503195100 | 15 | 173 | 0.0 | 1.6 | 0.00 | 0.00 | 0.00 | 54 | 1012.7 |
| 20260503194501 | 15 | 214 | 0.0 | 0.0 | 0.00 | 0.00 | 0.00 | 53 | 1012.8 |
| 20260503194101 | 16 | 223 | 0.0 | 0.0 | 0.00 | 0.00 | 0.00 | 53 | 1012.8 |
| 20260503193600 | 16 | 148 | 0.0 | 0.0 | 0.00 | 0.00 | 0.00 | 52 | 1012.8 |
| 20260503193500 | 16 | 148 | 0.0 | 0.0 | 0.00 | 0.00 | 0.00 | 52 | 1012.8 |
| 20260503193102 | 16 | 136 | 0.0 | 0.0 | 0.00 | 0.00 | 0.00 | 51 | 1012.8 |
| 20260503192502 | 16 | 223 | 0.0 | 1.6 | 0.00 | 0.00 | 0.00 | 50 | 1012.8 |
| 20260503192002 | 17 | 189 | 0.0 | 1.6 | 0.00 | 0.00 | 0.00 | 50 | 1012.7 |
| 20260503191603 | 17 | 211 | 0.0 | 0.0 | 0.00 | 0.00 | 0.00 | 49 | 1012.8 |
| 20260503191501 | 17 | 200 | 0.0 | 0.0 | 0.00 | 0.00 | 0.00 | 49 | 1012.8 |
| 20260503191001 | 17 | 180 | 0.0 | 0.0 | 0.00 | 0.00 | 0.00 | 48 | 1012.8 |
| 20260503190601 | 17 | 223 | 0.0 | 0.0 | 0.00 | 0.00 | 0.00 | 48 | 1012.7 |
| 20260503190002 | 17 | 213 | 0.0 | 0.0 | 0.00 | 0.00 | 0.00 | 46 | 1012.7 |
| 20260503185603 | 18 | 211 | 0.0 | 0.0 | 0.00 | 0.00 | 0.00 | 47 | 1012.7 |
| 20260503185103 | 18 | 328 | 0.0 | 0.0 | 0.00 | 0.00 | 0.00 | 44 | 1012.7 |
| 20260503185001 | 18 | 328 | 0.0 | 0.0 | 0.00 | 0.00 | 0.00 | 43 | 1012.7 |
| 20260503184600 | 18 | 328 | 0.0 | 0.0 | 0.00 | 0.00 | 0.00 | 44 | 1012.6 |
| 20260503184502 | 18 | 210 | 0.0 | 0.0 | 0.00 | 0.00 | 0.00 | 44 | 1012.6 |
| 20260503184002 | 19 | 129 | 0.0 | 0.0 | 0.00 | 0.00 | 0.00 | 43 | 1012.5 |
| 20260503183559 | 19 | 129 | 0.0 | 0.0 | 0.00 | 0.00 | 0.00 | 42 | 1012.5 |
| 20260503183006 | 20 | 193 | 0.0 | 0.0 | 0.00 | 0.00 | 0.00 | 40 | 1012.4 |
| 20260503182600 | 21 | 193 | 0.0 | 0.0 | 0.00 | 0.00 | 0.00 | 40 | 1012.4 |
| 20260503182100 | 21 | 193 | 0.0 | 0.0 | 0.00 | 0.00 | 0.00 | 36 | 1012.4 |
| 20260503181600 | 22 | 193 | 0.0 | 4.8 | 0.00 | 0.00 | 0.00 | 35 | 1012.4 |
| 20260503181502 | 22 | 193 | 0.0 | 4.8 | 0.00 | 0.00 | 0.00 | 36 | 1012.3 |
| 20260503181100 | 22 | 167 | 0.0 | 4.8 | 0.00 | 0.00 | 0.00 | 35 | 1012.3 |
| 20260503180500 | 22 | 232 | 0.0 | 4.8 | 0.00 | 0.00 | 0.00 | 34 | 1012.3 |
| 20260503180000 | 23 | 211 | 0.0 | 4.8 | 0.00 | 0.00 | 0.00 | 32 | 1012.3 |
| 20260503175501 | 23 | 228 | 0.0 | 8.0 | 0.00 | 0.00 | 0.00 | 31 | 1012.3 |
| 20260503175100 | 25 | 211 | 1.6 | 8.0 | 0.00 | 0.00 | 0.00 | 29 | 1012.2 |
| 20260503175001 | 25 | 196 | 1.6 | 8.0 | 0.00 | 0.00 | 0.00 | 29 | 1012.2 |
| 20260503174602 | 25 | 197 | 3.2 | 9.7 | 0.00 | 0.00 | 0.00 | 28 | 1012.2 |
| 20260503174502 | 25 | 182 | 3.2 | 9.7 | 0.00 | 0.00 | 0.00 | 28 | 1012.2 |
| 20260503174100 | 25 | 205 | 4.8 | 9.7 | 0.00 | 0.00 | 0.00 | 28 | 1012.2 |
| 20260503174002 | 25 | 200 | 4.8 | 11.3 | 0.00 | 0.00 | 0.00 | 28 | 1012.2 |
| 20260503173600 | 25 | 221 | 3.2 | 12.9 | 0.00 | 0.00 | 0.00 | 28 | 1012.2 |
| 20260503173001 | 25 | 179 | 4.8 | 12.9 | 0.00 | 0.00 | 0.00 | 27 | 1012.2 |
| 20260503172502 | 26 | 175 | 3.2 | 11.3 | 0.00 | 0.00 | 0.00 | 27 | 1012.2 |
| 20260503172100 | 26 | 205 | 4.8 | 16.1 | 0.00 | 0.00 | 0.00 | 27 | 1012.1 |
| 20260503172002 | 26 | 184 | 4.8 | 16.1 | 0.00 | 0.00 | 0.00 | 27 | 1012.1 |
| 20260503171600 | 26 | 184 | 4.8 | 16.1 | 0.00 | 0.00 | 0.00 | 27 | 1012.1 |
| 20260503171100 | 26 | 191 | 4.8 | 14.5 | 0.00 | 0.00 | 0.00 | 26 | 1012.2 |
| 20260503170601 | 26 | 198 | 8.0 | 14.5 | 0.00 | 0.00 | 0.00 | 26 | 1012.2 |
| 20260503151000 | 28 | 197 | 11.3 | 27.4 | 0.00 | 0.00 | 0.00 | 21 | 1012.7 |
| 20260503150501 | 28 | 200 | 8.0 | 30.6 | 0.00 | 0.00 | 0.00 | 21 | 1012.6 |
| 20260503140110 | 28 | 223 | 11.3 | 22.5 | 0.00 | 0.00 | 0.00 | 22 | 1013.3 |
| 20260503131059 | 28 | 237 | 8.0 | 24.1 | 0.00 | 0.00 | 0.00 | 22 | 1013.8 |
| 20260503130603 | 28 | 225 | 11.3 | 24.1 | 0.00 | 0.00 | 0.00 | 23 | 1014.0 |
| 20260503110600 | 27 | 213 | 8.0 | 24.1 | 0.00 | 0.00 | 0.00 | 25 | 1015.1 |
| 20260503110111 | 27 | 221 | 9.7 | 24.1 | 0.00 | 0.00 | 0.00 | 24 | 1015.2 |
| 20260503090104 | 25 | 198 | 8.0 | 16.1 | 0.00 | 0.00 | 0.00 | 30 | 1016.3 |
| 20260503081600 | 23 | 161 | 6.4 | 16.1 | 0.00 | 0.00 | 0.00 | 34 | 1016.7 |
| 20260503081059 | 22 | 190 | 6.4 | 16.1 | 0.00 | 0.00 | 0.00 | 35 | 1016.7 |
| 20260503080600 | 23 | 197 | 6.4 | 16.1 | 0.00 | 0.00 | 0.00 | 35 | 1016.8 |
| 20260503072601 | 20 | 156 | 3.2 | 11.3 | 0.00 | 0.00 | 0.00 | 42 | 1017.0 |
| 20260503072102 | 20 | 200 | 0.0 | 6.4 | 0.00 | 0.00 | 0.00 | 43 | 1017.1 |
| 20260503071615 | 20 | 154 | 3.2 | 12.9 | 0.00 | 0.00 | 0.00 | 44 | 1017.1 |
| 20260503071059 | 19 | 132 | 4.8 | 12.9 | 0.00 | 0.00 | 0.00 | 45 | 1017.1 |
| 20260503070603 | 19 | 197 | 6.4 | 12.9 | 0.00 | 0.00 | 0.00 | 45 | 1017.1 |